Torna al catalogo

STARLINK-36941

AttivoComunicazioniVLEO
NORAD 67991·PAYLOAD·🇺🇸 United States

Lanciato Feb 27, 2026 da Vandenberg Space Force Base

Loading…

Prossimi Passaggi (prossime 24 ore)

TLE

AggiornatoSource: CelesTrak SupGP

Epoca: Sep 15, 2026, 03:36 UTC

1 67991C 26039F   26258.15048611 -.00024162  00000+0 -87524-3 0  2584
2 67991  43.0018  59.1288 0001608 273.4989 217.1245 15.27586746    14

Traccia STARLINK-36941 in tempo reale con AllMySat

Download on the App Store